[[{"header":{"parameterUnit":"m.s-1","parameterCategory":1,"la1":30.2991,"la2":30.254,"lo1":-89.0895,"lo2":-89.0444,"dy":0.0017,"dx":0.0017,"nx":28,"ny":28,"refTime":"2025-08-30T03:00:00:Z","depth":0,"parameterNumber":2,"parameterNumberName":"U-component_of_WINDS"},"data":[0,0,0,0,0,0,0,0,0,0,0,0,0,0,0,0,0,0,0,0,0,0,0,0,0,0,0,0,0,0,0,0,0,0,0,0,0,0,0,0,0,0,0,0,0,0,0,0,0,0,0,0,0,0,0,0,0,0,-0.4203,-0.4203,0,-0.4249,-0.425,-0.425,-0.4278,-0.4278,-0.4278,-0.4278,-0.4329,-0.4331,-0.4332,0,0,0,0,0,0,0,0,0,0,0,0,0,-0.4141,-0.4142,-0.4203,-0.4203,-0.4204,-0.4249,-0.425,-0.425,-0.4278,-0.4278,-0.4278,-0.4278,-0.4329,-0.433,-0.4332,0,0,0,0,0,0,0,0,0,0,0,0,0,-0.4176,-0.4143,-0.4203,-0.4223,-0.4225,-0.4249,-0.425,-0.4251,-0.4278,-0.4278,-0.4278,-0.4278,-0.4328,-0.433,-0.4332,-0.434,0,0,-0.4338,-0.4339,0,0,0,0,0,0,0,0,-0.4174,-0.4178,-0.4219,-0.4222,-0.4224,-0.4258,-0.4247,-0.4281,-0.4278,-0.4258,-0.4278,-0.4278,-0.4306,-0.4309,-0.4318,-0.4343,-0.4345,-0.4338,-0.4339,-0.434,-0.4341,0,0,0,0,0,0,0,-0.4172,-0.4176,-0.4221,-0.422,-0.4223,-0.4231,-0.4236,-0.4253,-0.428,-0.426,-0.4262,-0.4267,-0.4307,-0.4316,-0.4319,-0.4346,-0.4338,-0.434,-0.4341,-0.4342,-0.438,-0.438,0,0,0,0,0,0,-0.4165,-0.4174,-0.422,-0.4223,-0.4199,-0.4232,-0.4238,-0.4247,-0.428,-0.4285,-0.4267,-0.4268,-0.4313,-0.4317,-0.4321,-0.4333,-0.434,-0.4342,-0.4343,-0.438,-0.438,-0.438,0,0,0,0,0,0,-0.4164,-0.4169,-0.4218,-0.4199,-0.4206,-0.4233,-0.4243,-0.4248,-0.4257,-0.4285,-0.4291,-0.427,-0.4313,-0.4319,-0.4335,-0.4335,-0.4343,-0.4344,-0.438,-0.438,-0.438,-0.4357,0,0,0,0,0,0,-0.4162,-0.4169,-0.4171,-0.4199,-0.4207,-0.423,-0.4243,-0.4249,-0.4259,-0.4262,-0.429,-0.4296,-0.4314,-0.4332,-0.4337,-0.4338,-0.4346,-0.438,-0.438,-0.438,-0.4358,-0.4356,-0.4354,0,0,0,0,0,-0.416,-0.4164,-0.4171,-0.4177,-0.421,-0.423,-0.4235,-0.4254,-0.4259,-0.4263,-0.4281,-0.4295,-0.4334,-0.4334,-0.4339,-0.4341,-0.4381,-0.438,-0.438,-0.4359,-0.4356,-0.4354,0,0,0,0,0,0,-0.4137,-0.4168,-0.4176,-0.4189,-0.4206,-0.4235,-0.4239,-0.4251,-0.4269,-0.427,-0.4295,-0.4301,-0.4315,-0.433,-0.4329,-0.4351,-0.4359,-0.436,-0.4341,-0.4339,-0.4337,-0.4334,-0.4347,0,0,0,0,0,-0.4133,-0.4145,-0.4172,-0.4181,-0.4189,-0.4212,-0.4222,-0.4235,-0.4255,-0.4263,-0.4282,-0.4302,-0.4319,-0.433,-0.4347,-0.436,-0.4367,-0.4364,-0.4362,-0.4361,-0.4361,-0.437,-0.4369,-0.4379,-0.4379,-0.4379,0,0,-0.4126,-0.4144,-0.4151,-0.4176,-0.4192,-0.4205,-0.4219,-0.4232,-0.4242,-0.4265,-0.4282,-0.4297,-0.432,-0.4335,-0.4343,-0.4348,-0.436,-0.436,-0.4359,-0.436,-0.4369,-0.4368,-0.4367,-0.4379,-0.4379,-0.4379,0,0,-0.4119,-0.4134,-0.4142,-0.4157,-0.4179,-0.4195,-0.4197,-0.4223,-0.4233,-0.425,-0.4268,-0.4281,-0.4309,-0.4325,-0.4337,-0.4336,-0.4349,-0.4341,-0.4332,-0.434,-0.4339,-0.4339,-0.4339,-0.4338,-0.4342,-0.4341,-0.4341,0,-0.4107,-0.4127,-0.4146,-0.4158,-0.4169,-0.4189,-0.4199,-0.4212,-0.4239,-0.4247,-0.4252,-0.4288,-0.4305,-0.4324,-0.4323,-0.4332,-0.4336,-0.4338,-0.4338,-0.4337,-0.4337,-0.4337,-0.4337,-0.434,-0.434,-0.4341,-0.4341,0,-0.4111,-0.4125,-0.4129,-0.4153,-0.4165,-0.4176,-0.4198,-0.4207,-0.422,-0.4235,-0.4252,-0.4273,-0.4295,-0.43,-0.4313,-0.4321,-0.4324,-0.4333,-0.4342,-0.4334,-0.4335,-0.4335,-0.4339,-0.4339,-0.4339,-0.434,0,0,-0.4092,-0.4126,-0.4128,-0.4139,-0.4164,-0.4175,-0.4187,-0.4207,-0.4215,-0.4233,-0.4245,-0.4268,-0.4276,-0.429,-0.4304,-0.4311,-0.4309,-0.432,-0.4321,-0.4317,-0.432,-0.4313,-0.4313,-0.4318,-0.4318,-0.4318,-0.4318,0,-0.409,-0.411,-0.4128,-0.4143,-0.4156,-0.4174,-0.4185,-0.4202,-0.4217,-0.4231,-0.4248,-0.4264,-0.4273,-0.4282,-0.4289,-0.4308,-0.431,-0.4308,-0.433,-0.433,-0.4323,-0.4313,-0.4306,-0.4305,-0.4318,-0.4318,-0.4318,0,-0.4089,-0.4105,-0.4121,-0.4145,-0.4151,-0.416,-0.4179,-0.4192,-0.4212,-0.4223,-0.4237,-0.4252,-0.4267,-0.4274,-0.4295,-0.4293,-0.4303,-0.4313,-0.4314,-0.4317,-0.4324,-0.4316,-0.4305,-0.4305,-0.4319,-0.4319,-0.4319,0,-0.4074,-0.4099,-0.4112,-0.4121,-0.4149,-0.4155,-0.4167,-0.4188,-0.4198,-0.4216,-0.4223,-0.4243,-0.4254,-0.4269,-0.4289,-0.4293,-0.4308,-0.4317,-0.4318,-0.4318,-0.4321,-0.4321,-0.4312,-0.4327,-0.4327,-0.4327,-0.4327,0,-0.4069,-0.4079,-0.4105,-0.4113,-0.4124,-0.4144,-0.4155,-0.4169,-0.4187,-0.4199,-0.4217,-0.4228,-0.4253,-0.4268,-0.4284,-0.4299,-0.4304,-0.4313,-0.4318,-0.4312,-0.4311,-0.4319,-0.432,-0.4327,-0.4327,-0.4327,-0.4327,0,-0.4054,-0.4073,-0.4088,-0.4113,-0.4119,-0.4126,-0.4148,-0.4157,-0.4172,-0.4187,-0.4192,-0.4216,-0.4234,-0.4255,-0.4281,-0.4292,-0.4305,-0.4311,-0.4298,-0.43,-0.43,-0.43,-0.4297,-0.4298,-0.4312,-0.4311,-0.4311,0,-0.4051,-0.4058,-0.4083,-0.4091,-0.4103,-0.4116,-0.4127,-0.4147,-0.4158,-0.4181,-0.4187,-0.4206,-0.4222,-0.425,-0.4271,-0.4291,-0.4298,-0.4295,-0.4301,-0.4295,-0.4298,-0.4298,-0.4299,-0.4294,-0.4293,-0.4293,-0.4293,0,-0.4042,-0.405,-0.4064,-0.4081,-0.4093,-0.4108,-0.4123,-0.413,-0.4153,-0.4165,-0.4182,-0.4194,-0.4219,-0.4238,-0.426,-0.4274,-0.4288,-0.4291,-0.4292,-0.4287,-0.4279,-0.4283,-0.4294,-0.4291,-0.4291,-0.4291,-0.4292,-0.4292,-0.4033,-0.404,-0.4058,-0.4073,-0.4087,-0.4101,-0.411,-0.4126,-0.414,-0.4161,-0.4173,-0.419,-0.4211,-0.4241,-0.4255,-0.427,-0.4275,-0.4277,-0.4277,-0.4277,-0.4276,-0.4276,-0.4274,-0.4274,-0.4274,-0.4274,-0.4274,0,-0.4025,-0.4037,-0.4051,-0.4071,-0.4083,-0.4093,-0.4111,-0.4121,-0.4135,-0.4153,-0.4168,-0.4188,-0.4206,-0.4228,-0.4248,-0.4256,-0.4262,-0.426,-0.426,-0.4263,-0.427,-0.4267,-0.4254,-0.4254,-0.4254,-0.4254,-0.4254,-0.4254,-0.4022,-0.4035,-0.4045,-0.4065,-0.4078,-0.4094,-0.4103,-0.4117,-0.413,-0.4152,-0.4166,-0.418,-0.4199,-0.4221,-0.4238,-0.4244,-0.4251,-0.4247,-0.4255,-0.4261,-0.4263,-0.4265,-0.4262,-0.4248,-0.4248,-0.4247,-0.4247,-0.4247]},{"header":{"parameterUnit":"m.s-1","parameterCategory":1,"la1":30.2991,"la2":30.254,"lo1":-89.0895,"lo2":-89.0444,"dy":0.0017,"dx":0.0017,"nx":28,"ny":28,"refTime":"2025-08-30T03:00:00:Z","depth":0,"parameterNumber":3,"parameterNumberName":"V-component_of_WINDS"},"data":[0,0,0,0,0,0,0,0,0,0,0,0,0,0,0,0,0,0,0,0,0,0,0,0,0,0,0,0,0,0,0,0,0,0,0,0,0,0,0,0,0,0,0,0,0,0,0,0,0,0,0,0,0,0,0,0,0,0,-0.2882,-0.2882,0,-0.2934,-0.2935,-0.2935,-0.2967,-0.2968,-0.2968,-0.2968,-0.302,-0.3021,-0.3022,0,0,0,0,0,0,0,0,0,0,0,0,0,-0.2807,-0.2808,-0.2881,-0.2882,-0.2883,-0.2934,-0.2935,-0.2935,-0.2967,-0.2968,-0.2968,-0.2968,-0.302,-0.3021,-0.3023,0,0,0,0,0,0,0,0,0,0,0,0,0,-0.2847,-0.2808,-0.2881,-0.2905,-0.2908,-0.2934,-0.2935,-0.2936,-0.2967,-0.2968,-0.2968,-0.2968,-0.3019,-0.3021,-0.3023,-0.3029,0,0,-0.3028,-0.3029,0,0,0,0,0,0,0,0,-0.2845,-0.285,-0.2901,-0.2903,-0.2906,-0.2945,-0.2927,-0.2967,-0.2967,-0.2945,-0.2968,-0.2968,-0.2995,-0.2998,-0.3008,-0.3031,-0.3034,-0.3029,-0.303,-0.303,-0.3031,0,0,0,0,0,0,0,-0.2842,-0.2848,-0.2902,-0.2902,-0.2905,-0.2912,-0.2918,-0.2935,-0.2967,-0.2947,-0.2949,-0.2955,-0.2996,-0.3006,-0.3009,-0.3034,-0.3028,-0.303,-0.3031,-0.3032,-0.3066,-0.3066,0,0,0,0,0,0,-0.2836,-0.2845,-0.2901,-0.2904,-0.2876,-0.2913,-0.292,-0.2932,-0.2967,-0.2973,-0.2955,-0.2956,-0.3003,-0.3007,-0.3011,-0.3021,-0.303,-0.3032,-0.3033,-0.3066,-0.3066,-0.3065,0,0,0,0,0,0,-0.2834,-0.284,-0.2898,-0.2875,-0.2883,-0.2914,-0.2927,-0.2933,-0.2943,-0.2974,-0.2979,-0.2959,-0.3003,-0.3009,-0.3024,-0.3023,-0.3033,-0.3035,-0.3066,-0.3066,-0.3066,-0.3041,0,0,0,0,0,0,-0.2832,-0.2839,-0.2843,-0.2875,-0.2884,-0.2911,-0.2927,-0.2934,-0.2946,-0.2949,-0.2979,-0.2984,-0.3004,-0.3021,-0.3026,-0.3026,-0.3036,-0.3066,-0.3066,-0.3066,-0.3042,-0.304,-0.3038,0,0,0,0,0,-0.2829,-0.2833,-0.2843,-0.2849,-0.2889,-0.2911,-0.2917,-0.2939,-0.2946,-0.2949,-0.2969,-0.2983,-0.3022,-0.3023,-0.3028,-0.3029,-0.3067,-0.3066,-0.3066,-0.3043,-0.304,-0.3038,0,0,0,0,0,0,-0.2799,-0.2838,-0.2849,-0.2864,-0.2884,-0.2917,-0.2922,-0.2936,-0.2954,-0.2956,-0.2982,-0.2989,-0.3002,-0.3017,-0.3017,-0.3037,-0.3046,-0.3047,-0.3027,-0.3025,-0.3023,-0.3019,-0.3038,0,0,0,0,0,-0.2795,-0.281,-0.2843,-0.2853,-0.2863,-0.289,-0.2901,-0.2916,-0.2938,-0.2947,-0.2968,-0.2988,-0.3005,-0.3015,-0.3032,-0.3044,-0.3051,-0.3047,-0.3045,-0.3043,-0.3043,-0.3051,-0.3049,-0.3064,-0.3064,-0.3064,0,0,-0.2785,-0.2808,-0.2816,-0.2848,-0.2865,-0.288,-0.2897,-0.2912,-0.2924,-0.2949,-0.2966,-0.2981,-0.3005,-0.3019,-0.3026,-0.3032,-0.3041,-0.3042,-0.304,-0.3042,-0.305,-0.3049,-0.3047,-0.3064,-0.3064,-0.3064,0,0,-0.2776,-0.2795,-0.2806,-0.2823,-0.2849,-0.2867,-0.287,-0.29,-0.2912,-0.2929,-0.2948,-0.2961,-0.299,-0.3006,-0.3019,-0.3014,-0.3029,-0.3019,-0.3009,-0.3016,-0.3015,-0.3014,-0.3013,-0.3012,-0.3019,-0.3019,-0.3019,0,-0.2761,-0.2785,-0.2809,-0.2823,-0.2837,-0.286,-0.2871,-0.2886,-0.2916,-0.2925,-0.293,-0.2967,-0.2984,-0.3003,-0.3002,-0.301,-0.3014,-0.3016,-0.3013,-0.3012,-0.3012,-0.3011,-0.3011,-0.3018,-0.3018,-0.3018,-0.3018,0,-0.2765,-0.2781,-0.2787,-0.2816,-0.283,-0.2842,-0.2867,-0.2878,-0.2892,-0.2909,-0.2926,-0.2948,-0.297,-0.2975,-0.2989,-0.2995,-0.2998,-0.3008,-0.3018,-0.3009,-0.3009,-0.3009,-0.3016,-0.3017,-0.3017,-0.3017,0,0,-0.274,-0.2783,-0.2784,-0.2798,-0.2828,-0.2841,-0.2854,-0.2876,-0.2885,-0.2904,-0.2916,-0.2939,-0.2948,-0.2962,-0.2977,-0.2983,-0.2979,-0.2992,-0.2993,-0.299,-0.2988,-0.2981,-0.298,-0.2988,-0.2988,-0.2988,-0.2986,0,-0.2736,-0.2762,-0.2784,-0.2801,-0.2816,-0.2838,-0.285,-0.2869,-0.2885,-0.29,-0.2917,-0.2934,-0.2944,-0.2953,-0.2959,-0.2978,-0.2979,-0.2978,-0.2999,-0.3,-0.2994,-0.298,-0.2973,-0.297,-0.2986,-0.2986,-0.2986,0,-0.2735,-0.2755,-0.2774,-0.2803,-0.281,-0.282,-0.2842,-0.2855,-0.2878,-0.2889,-0.2904,-0.292,-0.2934,-0.2942,-0.2961,-0.2961,-0.297,-0.298,-0.2981,-0.2984,-0.2993,-0.2984,-0.297,-0.2969,-0.2986,-0.2986,-0.2986,0,-0.2716,-0.2747,-0.2763,-0.2773,-0.2807,-0.2814,-0.2828,-0.285,-0.2862,-0.2881,-0.2889,-0.2908,-0.2919,-0.2934,-0.2955,-0.2958,-0.2972,-0.2982,-0.2982,-0.2982,-0.2985,-0.2985,-0.2973,-0.2989,-0.2989,-0.2989,-0.2989,0,-0.271,-0.2721,-0.2754,-0.2764,-0.2777,-0.2801,-0.2812,-0.2828,-0.2848,-0.2861,-0.288,-0.2891,-0.2918,-0.2932,-0.2948,-0.2962,-0.2967,-0.2976,-0.2981,-0.2975,-0.2974,-0.2983,-0.2984,-0.2989,-0.2989,-0.2989,-0.2989,0,-0.2692,-0.2714,-0.2733,-0.2763,-0.2771,-0.2779,-0.2805,-0.2814,-0.2831,-0.2847,-0.2852,-0.2878,-0.2896,-0.2918,-0.2942,-0.2953,-0.2966,-0.2972,-0.2959,-0.2962,-0.2961,-0.2961,-0.2955,-0.2955,-0.297,-0.297,-0.297,0,-0.2687,-0.2696,-0.2727,-0.2738,-0.2751,-0.2767,-0.278,-0.2803,-0.2815,-0.284,-0.2847,-0.2866,-0.2883,-0.291,-0.2931,-0.295,-0.2957,-0.2954,-0.296,-0.2955,-0.2958,-0.2958,-0.2959,-0.2952,-0.2952,-0.2952,-0.2952,0,-0.2676,-0.2687,-0.2704,-0.2725,-0.274,-0.2757,-0.2776,-0.2782,-0.2809,-0.2822,-0.284,-0.2853,-0.2878,-0.2897,-0.2919,-0.2933,-0.2947,-0.2949,-0.2951,-0.2946,-0.2938,-0.2943,-0.2955,-0.295,-0.295,-0.295,-0.295,-0.295,-0.2665,-0.2674,-0.2698,-0.2716,-0.2733,-0.2749,-0.276,-0.2778,-0.2794,-0.2817,-0.2829,-0.2848,-0.2869,-0.2899,-0.2913,-0.2927,-0.2932,-0.2934,-0.2934,-0.2935,-0.2933,-0.2935,-0.2931,-0.2931,-0.2931,-0.2931,-0.2931,0,-0.2656,-0.2672,-0.2689,-0.2714,-0.2729,-0.2741,-0.2761,-0.2772,-0.2788,-0.2807,-0.2823,-0.2845,-0.2863,-0.2885,-0.2905,-0.2912,-0.2919,-0.2916,-0.2916,-0.292,-0.2927,-0.2925,-0.291,-0.291,-0.291,-0.291,-0.291,-0.291,-0.2653,-0.267,-0.2683,-0.2707,-0.2723,-0.2742,-0.2752,-0.2767,-0.2783,-0.2806,-0.2821,-0.2836,-0.2856,-0.2877,-0.2894,-0.29,-0.2906,-0.2902,-0.291,-0.2917,-0.2919,-0.2921,-0.2918,-0.2903,-0.2903,-0.2902,-0.2902,-0.2901]}]]